• In Kazakhstan
  • List of Countries
  • For 7 days
  • Water Temperature
  • Satellite Maps
  • Weather Map
  • News
  • Weather Widgets
  • user-avatar
    Login

    Hourly Weather Rozmierka

    Today, 20 April, Saturday

    Time Temperature Precipitation Wind Pressure Humidity
    00:00 +11°C° 0 mm 1 mps 754 mmHg 57%
    01:00 +11°C° 0 mm 1 mps 754 mmHg 56%
    02:00 +10°C° 0 mm 1 mps 753 mmHg 58%
    03:00 +10°C° 0 mm 1 mps 753 mmHg 59%
    04:00 +9°C° 0 mm 1 mps 753 mmHg 61%
    05:00 +10°C° 0 mm 1 mps 753 mmHg 60%
    06:00 +11°C° 0 mm 1 mps 753 mmHg 58%
    07:00 +12°C° 0 mm 2 mps 754 mmHg 55%
    08:00 +14°C° 0 mm 2 mps 753 mmHg 48%
    09:00 +16°C° 0 mm 2 mps 753 mmHg 42%
    10:00 +18°C° 0 mm 3 mps 753 mmHg 35%
    11:00 +19°C° 0 mm 3 mps 753 mmHg 33%
    12:00 +20°C° 0 mm 4 mps 752 mmHg 31%
    13:00 +21°C° 0 mm 4 mps 752 mmHg 28%
    14:00 +21°C° 0 mm 4 mps 752 mmHg 29%
    15:00 +20°C° 0 mm 4 mps 751 mmHg 30%
    16:00 +19°C° 0 mm 4 mps 751 mmHg 31%
    17:00 +18°C° 0 mm 3 mps 751 mmHg 36%
    18:00 +16°C° 0 mm 3 mps 751 mmHg 40%
    19:00 +14°C° 0 mm 2 mps 751 mmHg 45%
    20:00 +13°C° 0 mm 2 mps 751 mmHg 49%
    21:00 +12°C° 0 mm 2 mps 751 mmHg 52%
    22:00 +11°C° 0 mm 1 mps 751 mmHg 56%
    23:00 +10°C° 0 mm 1 mps 751 mmHg 59%

    Tomorrow, 21 April, Sunday

    Time Temperature Precipitation Wind Pressure Humidity
    00:00 +9°C° 0 mm 2 mps 751 mmHg 63%
    01:00 +8°C° 0 mm 2 mps 750 mmHg 67%
    02:00 +7°C° 0 mm 2 mps 750 mmHg 69%
    03:00 +8°C° 0 mm 1 mps 750 mmHg 71%
    04:00 +7°C° 0 mm 1 mps 750 mmHg 74%
    05:00 +7°C° 0 mm 2 mps 750 mmHg 70%
    06:00 +8°C° 0 mm 2 mps 750 mmHg 66%
    07:00 +9°C° 0 mm 2 mps 750 mmHg 62%
    08:00 +12°C° 0 mm 2 mps 750 mmHg 55%
    09:00 +13°C° 0 mm 3 mps 749 mmHg 48%
    10:00 +16°C° 0 mm 3 mps 749 mmHg 41%
    11:00 +17°C° 0 mm 3 mps 749 mmHg 38%
    12:00 +17°C° 0 mm 3 mps 748 mmHg 35%
    13:00 +18°C° 0 mm 3 mps 748 mmHg 32%
    14:00 +18°C° 0 mm 3 mps 748 mmHg 33%
    15:00 +18°C° 0 mm 3 mps 747 mmHg 33%
    16:00 +18°C° 0 mm 3 mps 746 mmHg 33%
    17:00 +16°C° 0 mm 2 mps 746 mmHg 39%
    18:00 +15°C° 0 mm 2 mps 746 mmHg 44%
    19:00 +13°C° 0 mm 2 mps 746 mmHg 50%
    20:00 +12°C° 0 mm 2 mps 746 mmHg 52%
    21:00 +10°C° 0 mm 2 mps 746 mmHg 55%
    22:00 +10°C° 0 mm 2 mps 746 mmHg 57%
    23:00 +9°C° 0 mm 2 mps 745 mmHg 60%

    Day after tomorrow, 22 April, Monday

    Time Temperature Precipitation Wind Pressure Humidity
    00:00 +8°C° 0 mm 2 mps 745 mmHg 63%
    01:00 +8°C° 0 mm 2 mps 745 mmHg 66%
    02:00 +7°C° 0 mm 2 mps 745 mmHg 72%
    03:00 +6°C° 0 mm 2 mps 745 mmHg 78%
    04:00 +6°C° 0 mm 2 mps 745 mmHg 84%
    05:00 +7°C° 0 mm 3 mps 745 mmHg 79%
    06:00 +8°C° 0 mm 3 mps 745 mmHg 73%
    07:00 +8°C° 0 mm 3 mps 745 mmHg 68%
    08:00 +10°C° 0 mm 3 mps 745 mmHg 60%
    09:00 +11°C° 0 mm 4 mps 745 mmHg 53%
    10:00 +13°C° 0 mm 4 mps 745 mmHg 46%
    11:00 +13°C° 0.1 mm 4 mps 744 mmHg 44%
    12:00 +14°C° 0.1 mm 5 mps 744 mmHg 41%
    13:00 +15°C° 0.1 mm 5 mps 744 mmHg 39%
    14:00 +15°C° 0 mm 5 mps 744 mmHg 40%
    15:00 +16°C° 0 mm 6 mps 744 mmHg 40%
    16:00 +16°C° 0 mm 7 mps 743 mmHg 41%
    17:00 +15°C° 0 mm 6 mps 743 mmHg 48%
    18:00 +14°C° 0 mm 5 mps 743 mmHg 55%
    19:00 +12°C° 0 mm 5 mps 743 mmHg 62%
    20:00 +12°C° 0 mm 5 mps 743 mmHg 64%
    21:00 +10°C° 0 mm 6 mps 743 mmHg 65%
    22:00 +9°C° 0 mm 6 mps 743 mmHg 66%
    23:00 +9°C° 0 mm 6 mps 743 mmHg 67%

    23 April, Tuesday

    Time Temperature Precipitation Wind Pressure Humidity
    00:00 +8°C° 0 mm 5 mps 743 mmHg 68%
    01:00 +8°C° 0 mm 5 mps 742 mmHg 69%
    02:00 +8°C° 0 mm 5 mps 742 mmHg 70%
    03:00 +8°C° 0 mm 5 mps 742 mmHg 72%
    04:00 +8°C° 0 mm 5 mps 742 mmHg 73%
    05:00 +8°C° 0 mm 6 mps 741 mmHg 73%
    06:00 +9°C° 0 mm 6 mps 741 mmHg 74%
    07:00 +9°C° 0 mm 6 mps 741 mmHg 74%
    08:00 +11°C° 0 mm 6 mps 741 mmHg 66%
    09:00 +14°C° 0 mm 6 mps 741 mmHg 58%
    10:00 +17°C° 0 mm 6 mps 741 mmHg 50%
    11:00 +17°C° 0.3 mm 6 mps 741 mmHg 50%
    12:00 +19°C° 0.3 mm 6 mps 741 mmHg 50%
    13:00 +19°C° 0.3 mm 6 mps 741 mmHg 50%
    14:00 +17°C° 0.3 mm 6 mps 741 mmHg 53%
    15:00 +16°C° 0.3 mm 7 mps 740 mmHg 55%
    16:00 +16°C° 0.3 mm 7 mps 740 mmHg 58%
    17:00 +14°C° 0.2 mm 6 mps 740 mmHg 64%
    18:00 +13°C° 0.2 mm 6 mps 740 mmHg 70%
    19:00 +10°C° 0.2 mm 5 mps 740 mmHg 76%
    20:00 +10°C° 0.2 mm 5 mps 740 mmHg 76%
    21:00 +10°C° 0.2 mm 5 mps 740 mmHg 75%
    22:00 +10°C° 0.2 mm 5 mps 740 mmHg 75%
    23:00 +10°C° 0 mm 5 mps 739 mmHg 75%

    24 April, Wednesday

    Time Temperature Precipitation Wind Pressure Humidity
    00:00 +10°C° 0 mm 5 mps 739 mmHg 75%
    01:00 +10°C° 0 mm 5 mps 739 mmHg 75%
    02:00 +9°C° 0 mm 5 mps 739 mmHg 76%
    03:00 +9°C° 0 mm 5 mps 739 mmHg 78%
    04:00 +9°C° 0 mm 5 mps 739 mmHg 79%
    05:00 +10°C° 0 mm 5 mps 739 mmHg 76%
    06:00 +11°C° 0 mm 6 mps 739 mmHg 72%
    07:00 +14°C° 0 mm 6 mps 740 mmHg 68%
    08:00 +16°C° 0 mm 6 mps 740 mmHg 64%
    09:00 +18°C° 0 mm 7 mps 740 mmHg 59%
    10:00 +21°C° 0 mm 7 mps 741 mmHg 54%
    11:00 +21°C° 0 mm 7 mps 741 mmHg 53%
    12:00 +21°C° 0 mm 7 mps 741 mmHg 52%
    13:00 +21°C° 0 mm 7 mps 741 mmHg 52%
    14:00 +21°C° 0 mm 6 mps 741 mmHg 54%
    15:00 +20°C° 0 mm 6 mps 741 mmHg 57%
    16:00 +20°C° 0 mm 5 mps 742 mmHg 59%
    17:00 +19°C° 0 mm 5 mps 742 mmHg 61%
    18:00 +18°C° 0 mm 4 mps 742 mmHg 63%
    19:00 +17°C° 0 mm 4 mps 742 mmHg 65%
    20:00 +17°C° 0 mm 4 mps 742 mmHg 66%
    21:00 +15°C° 0 mm 4 mps 742 mmHg 68%
    22:00 +15°C° 0 mm 4 mps 742 mmHg 69%
    23:00 +14°C° 0 mm 4 mps 742 mmHg 71%

    25 April, Thursday

    Time Temperature Precipitation Wind Pressure Humidity
    00:00 +14°C° 0 mm 4 mps 742 mmHg 74%
    01:00 +13°C° 0 mm 4 mps 742 mmHg 77%
    02:00 +13°C° 0 mm 4 mps 742 mmHg 79%
    03:00 +13°C° 0 mm 4 mps 742 mmHg 81%
    04:00 +12°C° 0 mm 3 mps 742 mmHg 83%
    05:00 +14°C° 0 mm 4 mps 742 mmHg 79%
    06:00 +15°C° 0 mm 4 mps 742 mmHg 75%
    07:00 +16°C° 0 mm 5 mps 742 mmHg 71%
    08:00 +17°C° 0 mm 5 mps 743 mmHg 67%
    09:00 +19°C° 0 mm 5 mps 743 mmHg 63%
    10:00 +20°C° 0 mm 5 mps 743 mmHg 59%
    11:00 +21°C° 0 mm 5 mps 743 mmHg 57%
    12:00 +22°C° 0 mm 5 mps 743 mmHg 55%
    13:00 +23°C° 0 mm 6 mps 743 mmHg 53%
    14:00 +23°C° 0 mm 5 mps 742 mmHg 54%
    15:00 +23°C° 0 mm 5 mps 742 mmHg 55%
    16:00 +23°C° 0 mm 5 mps 742 mmHg 56%
    17:00 +21°C° 0 mm 4 mps 742 mmHg 62%
    18:00 +20°C° 0 mm 3 mps 742 mmHg 67%
    19:00 +19°C° 0 mm 2 mps 741 mmHg 73%
    20:00 +18°C° 0 mm 3 mps 741 mmHg 73%
    21:00 +18°C° 0 mm 3 mps 741 mmHg 73%
    22:00 +18°C° 0 mm 4 mps 741 mmHg 73%
    23:00 +17°C° 0 mm 4 mps 741 mmHg 74%
    Show more